| time (UTC) | temp C | wind direction | speed KPH | gust KPH | rain 1hr cm | rain 24hr cm | rain mn cm | humidity % | barometer mb |
| 20260505002622 | 25 | 225 | 4.8 | 11.3 | 0.00 | 0.00 | 0.00 | 64 | 1019.5 |
| 20260505002119 | 25 | 172 | 3.2 | 11.3 | 0.00 | 0.00 | 0.00 | 63 | 1019.7 |
| 20260505001617 | 25 | 202 | 3.2 | 11.3 | 0.00 | 0.00 | 0.00 | 64 | 1019.7 |
| 20260505001117 | 25 | 156 | 3.2 | 9.7 | 0.00 | 0.00 | 0.00 | 63 | 1019.8 |
| 20260505000613 | 25 | 146 | 3.2 | 8.0 | 0.00 | 0.00 | 0.00 | 63 | 1019.7 |
| 20260505000113 | 25 | 153 | 3.2 | 11.3 | 0.00 | 0.00 | 0.00 | 63 | 1019.8 |
| 20260504235611 | 25 | 217 | 3.2 | 11.3 | 0.00 | 0.00 | 0.00 | 63 | 1019.7 |
| 20260504235111 | 25 | 174 | 1.6 | 6.4 | 0.00 | 0.00 | 0.00 | 63 | 1019.8 |
| 20260504234610 | 24 | 216 | 3.2 | 12.9 | 0.00 | 0.00 | 0.00 | 63 | 1019.8 |
| 20260504234112 | 24 | 168 | 4.8 | 12.9 | 0.00 | 0.00 | 0.00 | 64 | 1019.9 |
| 20260504233605 | 24 | 167 | 3.2 | 11.3 | 0.00 | 0.00 | 0.00 | 65 | 1019.9 |
| 20260504233105 | 24 | 252 | 3.2 | 8.0 | 0.00 | 0.00 | 0.00 | 63 | 1019.9 |
| 20260504232605 | 24 | 223 | 3.2 | 11.3 | 0.00 | 0.00 | 0.00 | 63 | 1020.0 |
| 20260504232104 | 24 | 150 | 3.2 | 11.3 | 0.00 | 0.00 | 0.00 | 65 | 1019.9 |
| 20260504231605 | 24 | 113 | 1.6 | 11.3 | 0.00 | 0.00 | 0.00 | 64 | 1020.0 |
| 20260504231106 | 24 | 165 | 3.2 | 8.0 | 0.00 | 0.00 | 0.00 | 63 | 1019.9 |
| 20260504230559 | 24 | 251 | 4.8 | 14.5 | 0.00 | 0.00 | 0.00 | 64 | 1020.0 |
| 20260504230059 | 23 | 137 | 4.8 | 14.5 | 0.00 | 0.00 | 0.00 | 67 | 1020.1 |
| 20260504225559 | 23 | 142 | 4.8 | 12.9 | 0.00 | 0.00 | 0.00 | 66 | 1020.1 |
| 20260504225100 | 23 | 178 | 4.8 | 9.7 | 0.00 | 0.00 | 0.00 | 65 | 1020.2 |
| 20260504224559 | 23 | 158 | 3.2 | 12.9 | 0.00 | 0.00 | 0.00 | 67 | 1020.2 |
| 20260504224100 | 23 | 182 | 4.8 | 12.9 | 0.00 | 0.00 | 0.00 | 66 | 1020.3 |
| 20260504223558 | 23 | 190 | 4.8 | 12.9 | 0.00 | 0.00 | 0.00 | 66 | 1020.4 |
| 20260504223055 | 23 | 149 | 4.8 | 12.9 | 0.00 | 0.00 | 0.00 | 66 | 1020.3 |
| 20260504222556 | 23 | 80 | 4.8 | 12.9 | 0.00 | 0.00 | 0.00 | 66 | 1020.5 |
| 20260504222055 | 23 | 130 | 4.8 | 12.9 | 0.00 | 0.00 | 0.00 | 67 | 1020.6 |
| 20260504221553 | 23 | 111 | 4.8 | 17.7 | 0.00 | 0.00 | 0.00 | 68 | 1020.6 |
| 20260504221054 | 23 | 224 | 6.4 | 17.7 | 0.00 | 0.00 | 0.00 | 68 | 1020.7 |
| 20260504220548 | 23 | 142 | 6.4 | 16.1 | 0.00 | 0.00 | 0.00 | 67 | 1020.7 |
| 20260504220047 | 23 | 120 | 6.4 | 14.5 | 0.00 | 0.00 | 0.00 | 69 | 1020.8 |
| 20260504215547 | 22 | 103 | 4.8 | 12.9 | 0.00 | 0.00 | 0.00 | 69 | 1020.7 |
| 20260504215046 | 22 | 135 | 4.8 | 12.9 | 0.00 | 0.00 | 0.00 | 68 | 1020.9 |
| 20260504214547 | 22 | 162 | 4.8 | 12.9 | 0.00 | 0.00 | 0.00 | 69 | 1021.1 |
| 20260504214048 | 22 | 156 | 4.8 | 12.9 | 0.00 | 0.00 | 0.00 | 69 | 1021.1 |
| 20260504213542 | 22 | 86 | 4.8 | 12.9 | 0.00 | 0.00 | 0.00 | 67 | 1021.1 |
| 20260504213043 | 22 | 144 | 3.2 | 12.9 | 0.00 | 0.00 | 0.00 | 69 | 1021.3 |
| 20260504212544 | 22 | 182 | 4.8 | 12.9 | 0.00 | 0.00 | 0.00 | 68 | 1021.3 |
| 20260504212042 | 22 | 219 | 4.8 | 19.3 | 0.00 | 0.00 | 0.00 | 69 | 1021.3 |
| 20260504211540 | 22 | 115 | 3.2 | 19.3 | 0.00 | 0.00 | 0.00 | 70 | 1021.3 |
| 20260504211042 | 21 | 130 | 4.8 | 12.9 | 0.00 | 0.00 | 0.00 | 72 | 1021.4 |
| 20260504210536 | 21 | 163 | 4.8 | 12.9 | 0.00 | 0.00 | 0.00 | 71 | 1021.5 |
| 20260504210034 | 21 | 207 | 3.2 | 12.9 | 0.00 | 0.00 | 0.00 | 70 | 1021.6 |
| 20260504205532 | 21 | 106 | 4.8 | 12.9 | 0.00 | 0.00 | 0.00 | 74 | 1021.6 |
| 20260504205033 | 21 | 142 | 4.8 | 12.9 | 0.00 | 0.00 | 0.00 | 73 | 1021.7 |
| 20260504204532 | 21 | 225 | 4.8 | 12.9 | 0.00 | 0.00 | 0.00 | 70 | 1021.9 |
| 20260504204034 | 21 | 184 | 4.8 | 12.9 | 0.00 | 0.00 | 0.00 | 72 | 1021.9 |
| 20260504203529 | 20 | 121 | 4.8 | 12.9 | 0.00 | 0.00 | 0.00 | 74 | 1022.0 |
| 20260504203028 | 20 | 317 | 4.8 | 12.9 | 0.00 | 0.00 | 0.00 | 73 | 1022.0 |
| 20260504202530 | 20 | 148 | 4.8 | 12.9 | 0.00 | 0.00 | 0.00 | 75 | 1022.0 |
| 20260504202029 | 20 | 153 | 4.8 | 11.3 | 0.00 | 0.00 | 0.00 | 73 | 1022.0 |
| 20260504201527 | 20 | 165 | 3.2 | 12.9 | 0.00 | 0.00 | 0.00 | 74 | 1022.1 |
| 20260504201026 | 19 | 147 | 3.2 | 12.9 | 0.00 | 0.00 | 0.00 | 74 | 1022.1 |
| 20260504200521 | 19 | 115 | 4.8 | 14.5 | 0.00 | 0.00 | 0.00 | 73 | 1022.1 |
| 20260504200021 | 19 | 157 | 4.8 | 14.5 | 0.00 | 0.00 | 0.00 | 73 | 1022.1 |
| 20260504195521 | 19 | 167 | 4.8 | 14.5 | 0.00 | 0.00 | 0.00 | 73 | 1022.1 |
| 20260504195020 | 19 | 123 | 4.8 | 14.5 | 0.00 | 0.00 | 0.00 | 74 | 1022.1 |
| 20260504194520 | 19 | 170 | 3.2 | 12.9 | 0.00 | 0.00 | 0.00 | 74 | 1022.3 |
| 20260504194022 | 18 | 201 | 4.8 | 11.3 | 0.00 | 0.00 | 0.00 | 75 | 1022.1 |
| 20260504193519 | 18 | 194 | 4.8 | 11.3 | 0.00 | 0.00 | 0.00 | 76 | 1022.2 |
| 20260504193020 | 18 | 191 | 4.8 | 11.3 | 0.00 | 0.00 | 0.00 | 76 | 1022.0 |
| 20260504192513 | 18 | 201 | 4.8 | 14.5 | 0.00 | 0.00 | 0.00 | 78 | 1022.1 |
| 20260504192012 | 17 | 133 | 4.8 | 16.1 | 0.00 | 0.00 | 0.00 | 78 | 1022.2 |
| 20260504191508 | 17 | 170 | 4.8 | 16.1 | 0.00 | 0.00 | 0.00 | 78 | 1022.3 |
| 20260504191008 | 17 | 126 | 4.8 | 16.1 | 0.00 | 0.00 | 0.00 | 77 | 1022.4 |
| 20260504190510 | 17 | 167 | 4.8 | 12.9 | 0.00 | 0.00 | 0.00 | 78 | 1022.4 |
| 20260504190008 | 17 | 131 | 3.2 | 12.9 | 0.00 | 0.00 | 0.00 | 78 | 1022.4 |
| 20260504185509 | 17 | 115 | 4.8 | 14.5 | 0.00 | 0.00 | 0.00 | 80 | 1022.5 |
| 20260504185009 | 17 | 150 | 4.8 | 14.5 | 0.00 | 0.00 | 0.00 | 80 | 1022.5 |
| 20260504184504 | 16 | 192 | 4.8 | 12.9 | 0.00 | 0.00 | 0.00 | 79 | 1022.5 |
| 20260504184006 | 17 | 182 | 4.8 | 12.9 | 0.00 | 0.00 | 0.00 | 79 | 1022.6 |
| 20260504183505 | 16 | 186 | 4.8 | 11.3 | 0.00 | 0.00 | 0.00 | 81 | 1022.5 |
| 20260504183004 | 16 | 156 | 4.8 | 12.9 | 0.00 | 0.00 | 0.00 | 80 | 1022.5 |
| 20260504182504 | 16 | 175 | 3.2 | 12.9 | 0.00 | 0.00 | 0.00 | 81 | 1022.5 |
| 20260504182006 | 16 | 204 | 4.8 | 14.5 | 0.00 | 0.00 | 0.00 | 81 | 1022.4 |
| 20260504181501 | 16 | 121 | 4.8 | 14.5 | 0.00 | 0.00 | 0.00 | 81 | 1022.5 |
| 20260504181001 | 16 | 211 | 4.8 | 14.5 | 0.00 | 0.00 | 0.00 | 81 | 1022.4 |
| 20260504180501 | 16 | 151 | 6.4 | 14.5 | 0.00 | 0.00 | 0.00 | 81 | 1022.4 |
| 20260504180001 | 16 | 163 | 4.8 | 11.3 | 0.00 | 0.00 | 0.00 | 81 | 1022.5 |
| 20260504175500 | 16 | 190 | 4.8 | 14.5 | 0.00 | 0.00 | 0.00 | 81 | 1022.4 |
| 20260504175002 | 16 | 191 | 4.8 | 14.5 | 0.00 | 0.00 | 0.00 | 81 | 1022.4 |
| 20260504174457 | 16 | 173 | 4.8 | 12.9 | 0.00 | 0.00 | 0.00 | 82 | 1022.5 |
| 20260504173957 | 15 | 144 | 4.8 | 12.9 | 0.00 | 0.00 | 0.00 | 82 | 1022.4 |
| 20260504173458 | 15 | 171 | 4.8 | 12.9 | 0.00 | 0.00 | 0.00 | 82 | 1022.4 |
| 20260504172954 | 15 | 162 | 3.2 | 14.5 | 0.00 | 0.00 | 0.00 | 82 | 1022.4 |
| 20260504172455 | 15 | 216 | 3.2 | 14.5 | 0.00 | 0.00 | 0.00 | 83 | 1022.4 |
| 20260504171953 | 15 | 195 | 3.2 | 11.3 | 0.00 | 0.00 | 0.00 | 83 | 1022.4 |
| 20260504171452 | 15 | 194 | 4.8 | 16.1 | 0.00 | 0.00 | 0.00 | 83 | 1022.4 |
| 20260504170953 | 15 | 159 | 4.8 | 16.1 | 0.00 | 0.00 | 0.00 | 83 | 1022.4 |
| 20260504170447 | 15 | 149 | 4.8 | 12.9 | 0.00 | 0.00 | 0.00 | 84 | 1022.3 |
| 20260504160435 | 13 | 165 | 4.8 | 17.7 | 0.00 | 0.00 | 0.00 | 86 | 1022.4 |
| 20260504150929 | 13 | 231 | 4.8 | 16.1 | 0.00 | 0.00 | 0.00 | 87 | 1022.2 |
| 20260504150424 | 13 | 148 | 6.4 | 16.1 | 0.00 | 0.00 | 0.00 | 87 | 1022.1 |
| 20260504140916 | 12 | 205 | 4.8 | 11.3 | 0.00 | 0.00 | 0.00 | 89 | 1021.5 |
| 20260504140412 | 12 | 153 | 4.8 | 19.3 | 0.00 | 0.00 | 0.00 | 89 | 1021.4 |
| 20260504130400 | 11 | 175 | 4.8 | 12.9 | 0.00 | 0.00 | 0.00 | 89 | 1020.6 |
| 20260504110336 | 12 | 159 | 3.2 | 12.9 | 0.00 | 0.00 | 0.00 | 89 | 1019.7 |
| 20260504100327 | 12 | 208 | 3.2 | 11.3 | 0.00 | 0.00 | 0.00 | 87 | 1019.3 |
| 20260504081810 | 15 | 271 | 3.2 | 8.0 | 0.00 | 0.00 | 0.00 | 79 | 1018.3 |
| 20260504081309 | 15 | 228 | 3.2 | 9.7 | 0.00 | 0.00 | 0.00 | 78 | 1018.3 |
| 20260504080809 | 15 | 188 | 3.2 | 9.7 | 0.00 | 0.00 | 0.00 | 78 | 1018.2 |
| 20260504080309 | 15 | 223 | 3.2 | 11.3 | 0.00 | 0.00 | 0.00 | 78 | 1018.2 |
| 20260504070302 | 18 | 236 | 4.8 | 11.3 | 0.00 | 0.00 | 0.00 | 70 | 1017.3 |
| 20260504050746 | 23 | 295 | 4.8 | 11.3 | 0.00 | 0.00 | 0.00 | 51 | 1016.4 |
| 20260504050245 | 23 | 286 | 4.8 | 12.9 | 0.00 | 0.00 | 0.00 | 51 | 1016.3 |
| 20260504045746 | 23 | 294 | 3.2 | 12.9 | 0.00 | 0.00 | 0.00 | 51 | 1016.2 |
| 20260504045246 | 22 | 292 | 3.2 | 8.0 | 0.00 | 0.00 | 0.00 | 51 | 1016.1 |
| 20260504044746 | 22 | 323 | 1.6 | 8.0 | 0.00 | 0.00 | 0.00 | 51 | 1016.1 |
| 20260504044245 | 23 | 298 | 0.0 | 4.8 | 0.00 | 0.00 | 0.00 | 52 | 1016.0 |
| 20260504043745 | 23 | 288 | 0.0 | 3.2 | 0.00 | 0.00 | 0.00 | 51 | 1015.8 |
| 20260504043244 | 23 | 288 | 0.0 | 3.2 | 0.00 | 0.00 | 0.00 | 51 | 1015.7 |
| 20260504042743 | 23 | 261 | 0.0 | 0.0 | 0.00 | 0.00 | 0.00 | 50 | 1015.6 |
| 20260504042243 | 24 | 263 | 0.0 | 0.0 | 0.00 | 0.00 | 0.00 | 49 | 1015.5 |
| 20260504041744 | 24 | 263 | 0.0 | 1.6 | 0.00 | 0.00 | 0.00 | 49 | 1015.4 |
| 20260504041244 | 25 | 263 | 0.0 | 3.2 | 0.00 | 0.00 | 0.00 | 48 | 1015.4 |
| 20260504040744 | 25 | 263 | 1.6 | 4.8 | 0.00 | 0.00 | 0.00 | 47 | 1015.2 |
| 20260504040239 | 25 | 263 | 1.6 | 4.8 | 0.00 | 0.00 | 0.00 | 46 | 1015.3 |
| 20260504035739 | 26 | 257 | 1.6 | 4.8 | 0.00 | 0.00 | 0.00 | 46 | 1015.2 |
| 20260504035238 | 26 | 256 | 1.6 | 9.7 | 0.00 | 0.00 | 0.00 | 46 | 1015.2 |
| 20260504034737 | 26 | 256 | 1.6 | 9.7 | 0.00 | 0.00 | 0.00 | 46 | 1015.3 |
| 20260504034237 | 26 | 266 | 1.6 | 6.4 | 0.00 | 0.00 | 0.00 | 46 | 1015.2 |
| 20260504033737 | 26 | 273 | 1.6 | 4.8 | 0.00 | 0.00 | 0.00 | 46 | 1015.2 |
| 20260504033234 | 27 | 275 | 1.6 | 4.8 | 0.00 | 0.00 | 0.00 | 46 | 1015.2 |
| 20260504032733 | 27 | 274 | 1.6 | 4.8 | 0.00 | 0.00 | 0.00 | 45 | 1015.1 |
| 20260504032231 | 27 | 290 | 1.6 | 4.8 | 0.00 | 0.00 | 0.00 | 45 | 1015.1 |
| 20260504031732 | 28 | 265 | 3.2 | 6.4 | 0.00 | 0.00 | 0.00 | 44 | 1015.1 |
| 20260504031232 | 28 | 266 | 3.2 | 6.4 | 0.00 | 0.00 | 0.00 | 43 | 1015.0 |
| 20260504030731 | 29 | 265 | 1.6 | 6.4 | 0.00 | 0.00 | 0.00 | 42 | 1015.0 |
| 20260504030228 | 30 | 276 | 3.2 | 8.0 | 0.00 | 0.00 | 0.00 | 41 | 1015.0 |
| 20260504025727 | 30 | 277 | 3.2 | 8.0 | 0.00 | 0.00 | 0.00 | 39 | 1015.0 |
| 20260504025229 | 30 | 283 | 3.2 | 6.4 | 0.00 | 0.00 | 0.00 | 38 | 1015.0 |
| 20260504024727 | 31 | 286 | 1.6 | 4.8 | 0.00 | 0.00 | 0.00 | 37 | 1014.8 |
| 20260504024225 | 31 | 303 | 0.0 | 4.8 | 0.00 | 0.00 | 0.00 | 36 | 1014.9 |
| 20260504023725 | 31 | 304 | 1.6 | 4.8 | 0.00 | 0.00 | 0.00 | 36 | 1014.7 |
| 20260504023220 | 31 | 314 | 1.6 | 6.4 | 0.00 | 0.00 | 0.00 | 35 | 1014.6 |
| 20260504022719 | 31 | 303 | 1.6 | 6.4 | 0.00 | 0.00 | 0.00 | 35 | 1014.6 |
| 20260504022219 | 31 | 292 | 3.2 | 12.9 | 0.00 | 0.00 | 0.00 | 35 | 1014.7 |
| 20260504021719 | 31 | 315 | 4.8 | 12.9 | 0.00 | 0.00 | 0.00 | 34 | 1014.7 |
| 20260504021219 | 31 | 325 | 4.8 | 11.3 | 0.00 | 0.00 | 0.00 | 34 | 1014.8 |
| 20260504020720 | 31 | 286 | 4.8 | 11.3 | 0.00 | 0.00 | 0.00 | 34 | 1014.7 |
| 20260504020214 | 31 | 275 | 6.4 | 16.1 | 0.00 | 0.00 | 0.00 | 35 | 1014.9 |
| 20260504015713 | 31 | 285 | 6.4 | 16.1 | 0.00 | 0.00 | 0.00 | 34 | 1015.0 |
| 20260504015213 | 32 | 290 | 6.4 | 19.3 | 0.00 | 0.00 | 0.00 | 36 | 1014.9 |
| 20260504014713 | 32 | 28 | 6.4 | 19.3 | 0.00 | 0.00 | 0.00 | 35 | 1014.9 |
| 20260504014213 | 32 | 315 | 6.4 | 14.5 | 0.00 | 0.00 | 0.00 | 35 | 1014.8 |
| 20260504013713 | 32 | 286 | 4.8 | 12.9 | 0.00 | 0.00 | 0.00 | 35 | 1015.0 |
| 20260504013208 | 32 | 281 | 4.8 | 11.3 | 0.00 | 0.00 | 0.00 | 35 | 1015.0 |
| 20260504012707 | 32 | 297 | 4.8 | 16.1 | 0.00 | 0.00 | 0.00 | 34 | 1015.0 |
| 20260504012207 | 32 | 279 | 4.8 | 16.1 | 0.00 | 0.00 | 0.00 | 34 | 1015.0 |
| 20260504011707 | 33 | 342 | 4.8 | 14.5 | 0.00 | 0.00 | 0.00 | 34 | 1015.2 |
| 20260504011207 | 33 | 308 | 4.8 | 14.5 | 0.00 | 0.00 | 0.00 | 34 | 1015.2 |
| 20260504010708 | 33 | 325 | 4.8 | 14.5 | 0.00 | 0.00 | 0.00 | 34 | 1015.2 |
| 20260504010202 | 33 | 355 | 4.8 | 14.5 | 0.00 | 0.00 | 0.00 | 34 | 1015.2 |
| 20260504005701 | 33 | 17 | 4.8 | 11.3 | 0.00 | 0.00 | 0.00 | 34 | 1015.2 |
| 20260504005201 | 33 | 287 | 4.8 | 12.9 | 0.00 | 0.00 | 0.00 | 35 | 1015.2 |
| 20260504004702 | 33 | 279 | 3.2 | 12.9 | 0.00 | 0.00 | 0.00 | 34 | 1015.2 |
| 20260504004201 | 33 | 25 | 3.2 | 11.3 | 0.00 | 0.00 | 0.00 | 35 | 1015.5 |
| 20260504003701 | 33 | 275 | 4.8 | 12.9 | 0.00 | 0.00 | 0.00 | 35 | 1015.3 |
| 20260504003158 | 33 | 5 | 6.4 | 16.1 | 0.00 | 0.00 | 0.00 | 34 | 1015.4 |